FW8563 Weather Reports


Display with metric or nautical units.
time (UTC)temp
F
wind
direction
speed
MPH
gust
MPH
rain 1hr
in
rain 24hr
in
rain mn
in
humidity
%
barometer
mb
20260510024216 53 108 0.0 3.0 0.27 0.29 0.30 97 1017.6
20260510023714 53 116 0.0 1.0 0.28 0.28 0.28 97 1017.5
20260510023213 53 98 0.0 1.0 0.24 0.25 0.26 96 1017.8
20260510022714 53 124 0.0 1.0 0.21 0.21 0.22 96 1018.0
20260510021713 53 101 1.0 5.0 0.14 0.14 0.15 96 1018.0
20260510021214 53 146 1.0 9.0 0.13 0.13 0.13 96 1018.5
20260510020712 53 234 2.0 9.0 0.13 0.13 0.13 95 1018.6
20260510020220 53 265 2.0 8.0 0.10 0.10 0.10 95 1018.6
20260510015709 53 231 1.0 6.0 0.09 0.09 0.09 94 1018.5
20260510015208 55 217 1.0 5.0 0.06 0.06 0.07 92 1018.1
20260510014708 56 203 1.0 5.0 0.05 0.05 0.05 86 1018.0
20260510014211 56 217 0.0 4.0 0.02 0.02 0.03 84 1017.9
20260510013709 57 157 0.0 2.0 0.01 0.01 0.02 83 1017.7
20260510013208 58 206 0.0 1.0 0.01 0.01 0.01 82 1017.6
20260510012711 58 205 0.0 0.0 0.00 0.00 0.00 81 1017.6
20260510012209 58 209 0.0 1.0 0.00 0.00 0.00 79 1017.5
20260510011707 58 207 0.0 1.0 0.00 0.00 0.00 79 1017.5
20260510011206 58 214 0.0 1.0 0.00 0.00 0.00 78 1017.5
20260510010704 59 207 0.0 1.0 0.00 0.00 0.00 78 1017.2
20260510010206 59 220 0.0 1.0 0.00 0.00 0.00 77 1017.1
20260510005706 59 156 0.0 1.0 0.00 0.00 0.00 77 1017.2
20260510005204 59 153 0.0 2.0 0.00 0.00 0.00 76 1017.2
20260510004205 59 155 0.0 1.0 0.00 0.00 0.00 76 1017.1
20260510003659 59 128 0.0 1.0 0.00 0.00 0.00 76 1017.1
20260510003200 59 119 0.0 0.0 0.00 0.00 0.00 76 1017.1
20260510002701 59 122 0.0 0.0 0.00 0.00 0.00 75 1017.2
20260510002201 59 124 0.0 0.0 0.00 0.00 0.00 75 1017.2
20260510001658 59 124 0.0 1.0 0.00 0.00 0.00 75 1017.2
20260510001156 59 143 0.0 1.0 0.00 0.00 0.00 75 1017.4
20260510000656 59 131 0.0 0.0 0.00 0.00 0.00 73 1017.5
20260510000156 59 103 0.0 0.0 0.00 0.00 0.00 72 1017.4
20260509235158 59 123 0.0 1.0 0.00 0.00 0.00 68 1017.8
20260509234659 59 123 0.0 1.0 0.00 0.00 0.00 68 1017.8
20260509234157 59 98 0.0 3.0 0.00 0.00 0.00 67 1017.8
20260509233656 59 80 1.0 4.0 0.00 0.00 0.00 64 1017.6
20260509233152 60 100 1.0 4.0 0.00 0.00 0.00 64 1017.7
20260509232645 61 119 0.0 3.0 0.00 0.00 0.00 63 1018.0
20260509232140 61 144 0.0 1.0 0.00 0.00 0.00 63 1018.0
20260509231640 61 144 0.0 1.0 0.00 0.00 0.00 63 1018.0
20260509231138 60 23 0.0 0.0 0.00 0.00 0.00 66 1017.9
20260509230638 59 340 0.0 0.0 0.00 0.00 0.00 71 1018.0
20260509230135 59 340 0.0 0.0 0.00 0.00 0.00 74 1018.0
20260509225635 60 340 0.0 1.0 0.00 0.00 0.00 75 1018.0
20260509225132 60 340 0.0 1.0 0.00 0.00 0.00 76 1018.0
20260509224631 60 338 0.0 1.0 0.00 0.00 0.00 73 1017.9
20260509224128 60 312 0.0 1.0 0.00 0.00 0.00 71 1017.9
20260509221629 59 28 0.0 0.0 0.00 0.00 0.00 71 1017.6
20260509221126 59 27 0.0 0.0 0.00 0.00 0.00 74 1017.3
20260509220627 58 24 0.0 0.0 0.00 0.00 0.00 75 1017.3
20260509220126 59 39 0.0 0.0 0.00 0.00 0.00 76 1017.3
20260509215622 59 28 0.0 0.0 0.00 0.01 0.00 78 1017.4
20260509214620 58 25 1.0 3.0 0.00 0.01 0.00 81 1017.6
20260509214117 59 9 1.0 3.0 0.00 0.02 0.00 83 1017.5
20260509213619 60 30 1.0 3.0 0.00 0.02 0.00 80 1017.5
20260509213116 60 62 0.0 0.0 0.00 0.02 0.00 77 1017.6
20260509212615 60 62 0.0 0.0 0.00 0.02 0.00 77 1017.5
20260509212117 60 27 0.0 0.0 0.00 0.02 0.00 78 1017.6
20260509211116 60 27 0.0 0.0 0.00 0.02 0.00 79 1017.4
20260509210611 60 27 0.0 0.0 0.00 0.02 0.00 82 1017.4
20260509210116 60 27 0.0 0.0 0.00 0.02 0.00 83 1017.4
20260509205605 60 27 0.0 0.0 0.00 0.02 0.00 84 1017.4
20260509205100 60 27 0.0 0.0 0.00 0.02 0.00 84 1017.2
20260509204601 60 27 0.0 2.0 0.00 0.02 0.00 84 1017.2
20260509204103 60 27 0.0 2.0 0.00 0.02 0.00 85 1017.2
20260509203602 60 69 0.0 1.0 0.00 0.03 0.00 84 1017.2
20260509203058 60 69 0.0 3.0 0.00 0.04 0.00 84 1017.2
20260509202603 60 62 0.0 3.0 0.00 0.04 0.00 85 1017.2
20260509202058 60 35 0.0 2.0 0.00 0.04 0.00 84 1017.4
20260509201556 60 76 0.0 1.0 0.00 0.04 0.00 84 1017.8
20260509201058 60 94 0.0 1.0 0.00 0.04 0.00 84 1017.8
20260509200557 60 94 0.0 2.0 0.00 0.04 0.00 85 1017.8
20260509200054 60 67 0.0 2.0 0.00 0.04 0.00 85 1017.5
20260509195055 61 150 0.0 1.0 0.00 0.04 0.00 86 1018.1
20260509194553 61 133 0.0 2.0 0.00 0.04 0.00 86 1018.1
20260509194049 61 106 0.0 2.0 0.00 0.04 0.00 85 1018.0
20260509193551 61 118 0.0 1.0 0.00 0.04 0.00 84 1018.0
20260509193049 61 115 0.0 1.0 0.00 0.04 0.00 84 1018.1
20260509192550 62 205 0.0 0.0 0.00 0.04 0.00 84 1018.0
20260509192048 62 146 0.0 0.0 0.00 0.04 0.00 83 1017.9
20260509191546 62 157 0.0 0.0 0.00 0.04 0.00 83 1017.8
20260509191044 62 174 0.0 0.0 0.00 0.05 0.00 83 1017.7
20260509190543 62 174 0.0 0.0 0.00 0.05 0.00 83 1017.6
20260509190040 62 174 0.0 0.0 0.00 0.05 0.00 83 1017.5
20260509185538 62 193 0.0 0.0 0.00 0.05 0.00 82 1017.5
20260509185038 62 188 0.0 0.0 0.00 0.05 0.00 82 1017.5
20260509184536 62 203 0.0 0.0 0.00 0.05 0.00 82 1017.4
20260509184039 62 141 0.0 0.0 0.00 0.05 0.00 82 1017.2
20260509183534 62 139 0.0 0.0 0.00 0.05 0.00 82 1017.1
20260509182529 63 119 0.0 0.0 0.00 0.05 0.00 81 1017.0
20260509181524 63 142 0.0 1.0 0.00 0.06 0.00 79 1016.9
20260509180524 64 203 0.0 1.0 0.00 0.06 0.00 79 1016.8
20260509180024 64 209 0.0 0.0 0.00 0.06 0.00 79 1016.7
20260509175524 64 193 0.0 0.0 0.00 0.06 0.00 79 1016.7
20260509174520 65 197 0.0 0.0 0.00 0.07 0.00 78 1016.5
20260509174018 65 198 0.0 0.0 0.00 0.08 0.00 77 1016.4
20260509173018 65 198 0.0 0.0 0.00 0.08 0.00 76 1016.4
20260509172518 66 200 0.0 0.0 0.00 0.08 0.00 75 1016.6
20260509172013 66 200 0.0 1.0 0.00 0.08 0.00 75 1016.6
20260509171516 66 208 0.0 3.0 0.00 0.09 0.00 74 1016.8
20260509171014 66 191 0.0 3.0 0.00 0.09 0.00 73 1016.8
20260509170507 66 156 0.0 1.0 0.00 0.09 0.00 72 1016.9
20260509170002 66 122 0.0 0.0 0.00 0.09 0.00 73 1016.9
20260509165001 67 130 0.0 1.0 0.00 0.10 0.00 72 1017.0
20260509164002 67 224 1.0 4.0 0.00 0.11 0.00 71 1017.1
20260509163504 67 228 1.0 4.0 0.00 0.11 0.00 71 1017.2
20260509163002 67 195 0.0 2.0 0.00 0.11 0.00 71 1017.1
20260509162504 67 212 1.0 3.0 0.00 0.12 0.00 70 1017.1
20260509161505 68 221 1.0 3.0 0.00 0.12 0.00 67 1017.2
20260509161001 68 213 1.0 4.0 0.00 0.13 0.00 67 1017.1
20260509160502 68 196 0.0 4.0 0.00 0.13 0.00 66 1017.2
20260509160002 68 219 1.0 5.0 0.00 0.13 0.00 66 1017.2
20260509155502 69 206 1.0 5.0 0.00 0.13 0.00 66 1017.3
20260509155000 69 172 0.0 2.0 0.00 0.13 0.00 68 1017.1
20260509153459 69 103 0.0 3.0 0.00 0.15 0.00 67 1017.3
20260509153001 68 143 1.0 3.0 0.00 0.15 0.00 68 1017.3
20260509152458 68 125 1.0 4.0 0.00 0.16 0.00 68 1017.3
20260509151458 69 136 1.0 4.0 0.00 0.17 0.00 68 1017.3
20260509151001 69 132 1.0 4.0 0.00 0.17 0.00 66 1017.4
20260509150457 69 251 1.0 5.0 0.00 0.17 0.00 66 1017.4
20260509145954 69 131 1.0 5.0 0.00 0.17 0.00 67 1017.6
20260509145454 69 134 2.0 8.0 0.00 0.17 0.00 68 1017.6
20260509144954 69 112 2.0 8.0 0.00 0.17 0.00 65 1017.8
20260509144458 70 116 1.0 7.0 0.00 0.17 0.00 67 1017.7
20260509143954 69 103 1.0 5.0 0.00 0.17 0.00 66 1017.8
20260509143456 70 141 1.0 5.0 0.00 0.17 0.00 65 1017.8
20260509142956 69 114 2.0 7.0 0.00 0.17 0.00 67 1017.9
20260509142454 69 94 3.0 7.0 0.00 0.17 0.00 65 1018.1
20260509141955 69 136 3.0 6.0 0.00 0.17 0.00 67 1018.0
20260509141453 69 134 2.0 6.0 0.00 0.17 0.00 66 1018.1
20260509140953 69 207 2.0 7.0 0.00 0.17 0.00 66 1018.2
20260509135956 69 145 2.0 5.0 0.00 0.17 0.00 66 1018.4
20260509135454 70 172 2.0 5.0 0.00 0.17 0.00 67 1018.4
20260509135003 70 145 1.0 5.0 0.00 0.17 0.00 65 1018.4
20260509134453 69 164 1.0 5.0 0.00 0.17 0.00 66 1018.5
20260509133955 69 111 2.0 5.0 0.00 0.18 0.00 67 1018.5
20260509133454 69 134 2.0 5.0 0.00 0.18 0.00 66 1018.6
20260509132954 70 204 2.0 7.0 0.00 0.18 0.00 66 1018.7
20260509132454 69 192 3.0 7.0 0.00 0.18 0.00 67 1018.7
20260509131953 70 148 2.0 9.0 0.00 0.18 0.00 66 1018.7
20260509131453 69 139 3.0 9.0 0.00 0.18 0.00 65 1018.8
20260509130954 69 193 2.0 6.0 0.00 0.18 0.00 63 1018.7
20260509125954 70 131 2.0 11.0 0.00 0.18 0.00 64 1018.9
20260509125453 69 274 4.0 11.0 0.00 0.18 0.00 63 1018.9
20260509124954 69 154 4.0 10.0 0.00 0.18 0.00 64 1018.9
20260509124454 69 146 3.0 9.0 0.00 0.18 0.00 59 1019.0
20260509123454 70 172 3.0 7.0 0.00 0.18 0.00 56 1018.9
20260509122953 69 168 2.0 7.0 0.00 0.18 0.00 56 1018.9
20260509122453 70 80 2.0 7.0 0.00 0.18 0.00 57 1018.9
20260509121954 70 117 2.0 8.0 0.00 0.18 0.00 55 1018.9
20260509121453 69 152 2.0 8.0 0.00 0.18 0.00 56 1018.9
20260509120953 69 345 3.0 8.0 0.00 0.20 0.00 55 1019.0
20260509120456 69 222 4.0 9.0 0.00 0.28 0.00 57 1018.9
20260509115453 70 166 3.0 7.0 0.00 0.38 0.00 61 1019.0
20260509114447 69 203 3.0 8.0 0.00 0.39 0.00 59 1019.1
20260509113945 69 193 4.0 10.0 0.00 0.47 0.00 60 1019.0
20260509112945 69 275 3.0 9.0 0.00 0.54 0.00 64 1019.1
20260509112446 69 211 3.0 9.0 0.00 0.54 0.00 62 1019.1
20260509111942 69 141 3.0 7.0 0.00 0.54 0.00 65 1019.1
20260509110942 68 204 4.0 10.0 0.00 0.54 0.00 66 1019.1
20260509110441 68 184 3.0 9.0 0.00 0.54 0.00 68 1019.1
20260509105942 68 269 3.0 9.0 0.00 0.54 0.00 67 1019.2
20260509105439 68 214 2.0 7.0 0.00 0.54 0.00 66 1019.2
20260509104440 67 141 1.0 5.0 0.00 0.54 0.00 68 1019.1
20260509103431 67 68 3.0 6.0 0.00 0.54 0.00 65 1019.1
20260509102925 67 84 3.0 8.0 0.00 0.54 0.00 66 1019.2
20260509101919 67 79 1.0 5.0 0.00 0.54 0.00 63 1019.1
20260509101417 67 30 2.0 6.0 0.00 0.54 0.00 67 1019.2
20260509100917 67 120 2.0 6.0 0.00 0.54 0.00 66 1019.1
20260509100414 67 82 2.0 7.0 0.00 0.54 0.00 69 1019.1
20260509095913 66 356 2.0 7.0 0.00 0.54 0.00 69 1019.2
20260509095413 66 51 2.0 6.0 0.00 0.54 0.00 68 1019.1
20260509094915 65 41 2.0 6.0 0.00 0.54 0.00 67 1019.2
20260509094414 66 56 2.0 6.0 0.00 0.54 0.00 67 1019.1
20260509093910 65 116 2.0 6.0 0.00 0.54 0.00 68 1019.2
20260509093411 65 90 3.0 8.0 0.00 0.54 0.00 66 1019.2
20260509092909 65 82 4.0 9.0 0.00 0.54 0.00 68 1019.1
20260509092412 65 65 3.0 9.0 0.00 0.54 0.00 69 1019.2
20260509091910 65 80 3.0 8.0 0.00 0.54 0.00 69 1019.1
20260509091409 65 60 3.0 7.0 0.00 0.54 0.00 72 1019.1
20260509090903 65 111 2.0 7.0 0.00 0.54 0.00 73 1019.2
20260509090403 64 65 3.0 8.0 0.00 0.54 0.00 74 1019.2
20260509085906 64 70 3.0 8.0 0.00 0.54 0.00 79 1019.2
20260509085404 64 68 3.0 8.0 0.00 0.54 0.00 78 1019.3
20260509084905 64 42 3.0 8.0 0.00 0.54 0.00 76 1019.2
20260509084402 64 22 3.0 7.0 0.00 0.54 0.00 78 1019.2
20260509083903 64 92 3.0 7.0 0.00 0.54 0.00 75 1019.2
20260509083404 64 59 2.0 7.0 0.00 0.54 0.00 74 1019.3
20260509081902 63 4 3.0 9.0 0.00 0.54 0.00 80 1019.3
20260509081403 62 94 4.0 9.0 0.00 0.54 0.00 78 1019.2
20260509080905 63 356 3.0 9.0 0.00 0.54 0.00 79 1019.2
20260509080401 62 63 3.0 9.0 0.00 0.54 0.00 77 1019.1
20260509075905 62 84 3.0 8.0 0.00 0.54 0.00 78 1019.1
20260509075401 62 36 2.0 7.0 0.00 0.54 0.00 80 1019.2
20260509074904 62 22 2.0 7.0 0.00 0.54 0.00 82 1019.2
20260509074403 62 351 1.0 5.0 0.00 0.54 0.00 83 1019.2
20260509073403 62 59 0.0 4.0 0.00 0.54 0.00 85 1019.3
20260509072901 62 333 0.0 2.0 0.00 0.54 0.00 87 1019.3
20260509072403 61 14 1.0 3.0 0.00 0.54 0.00 84 1019.2
20260509071900 61 99 1.0 3.0 0.00 0.54 0.00 85 1019.3
20260509071404 61 29 0.0 2.0 0.00 0.54 0.00 85 1019.3
20260509070903 61 335 1.0 4.0 0.00 0.54 0.00 87 1019.2
20260509070401 60 8 1.0 4.0 0.00 0.54 0.00 86 1019.2
20260509065903 60 58 1.0 6.0 0.00 0.54 0.00 87 1019.2
20260509065402 59 30 2.0 6.0 0.00 0.54 0.00 86 1019.2
20260509064859 59 53 2.0 6.0 0.00 0.54 0.00 86 1019.2
20260509064400 60 67 2.0 5.0 0.00 0.54 0.00 88 1019.1
20260509063859 59 34 2.0 5.0 0.00 0.54 0.00 89 1019.1
20260509063359 59 13 2.0 5.0 0.00 0.54 0.00 88 1019.2
20260509062856 58 58 1.0 5.0 0.00 0.54 0.00 88 1019.2
20260509061900 58 33 1.0 4.0 0.00 0.54 0.00 90 1019.3
20260509061400 58 35 1.0 4.0 0.00 0.54 0.00 91 1019.3
20260509060856 58 27 1.0 4.0 0.00 0.54 0.00 91 1019.4
20260509060358 57 8 1.0 3.0 0.00 0.54 0.00 90 1019.4
20260509055858 57 32 0.0 2.0 0.00 0.54 0.00 91 1019.5
20260509055358 57 10 1.0 2.0 0.00 0.54 0.00 91 1019.6
20260509054859 56 350 0.0 2.0 0.00 0.54 0.00 91 1019.6
20260509054358 56 13 1.0 2.0 0.00 0.54 0.00 92 1019.6
20260509053858 55 16 1.0 3.0 0.00 0.54 0.00 93 1019.5
20260509053357 54 9 1.0 3.0 0.00 0.54 0.00 92 1019.5
20260509052859 54 1 1.0 3.0 0.00 0.54 0.00 92 1019.6
20260509052410 53 335 1.0 3.0 0.00 0.54 0.00 92 1019.6
20260509051857 53 323 1.0 3.0 0.00 0.54 0.00 92 1019.5
20260509050855 54 333 0.0 1.0 0.00 0.54 0.00 91 1019.3
20260509050354 55 344 0.0 1.0 0.00 0.54 0.00 91 1019.3
20260509045851 55 5 0.0 1.0 0.00 0.54 0.00 92 1019.2
20260509045348 54 15 1.0 2.0 0.00 0.54 0.00 93 1019.2
20260509044348 53 346 0.0 1.0 0.00 0.54 0.00 92 1019.1
20260509043843 54 333 0.0 1.0 0.00 0.54 0.00 92 1019.1
20260509043346 54 11 0.0 1.0 0.00 0.54 0.00 92 1019.0
20260509042840 54 11 0.0 1.0 0.00 0.54 0.00 93 1018.9
20260509042342 54 15 0.0 1.0 0.00 0.54 0.00 93 1018.9
20260509041844 53 15 1.0 2.0 0.00 0.54 0.00 93 1018.9
20260509040840 53 13 0.0 2.0 0.00 0.54 0.00 92 1018.8
20260509040342 53 28 1.0 3.0 0.00 0.54 0.00 92 1018.6
20260509035336 53 36 1.0 4.0 0.00 0.54 0.00 92 1018.5
20260509034336 53 33 1.0 2.0 0.00 0.54 0.00 92 1018.6
20260509033836 53 25 0.0 1.0 0.00 0.54 0.00 92 1018.6
20260509033338 54 23 0.0 2.0 0.00 0.54 0.00 92 1018.6
20260509032836 53 18 1.0 3.0 0.00 0.54 0.00 92 1018.5
20260509032336 53 18 1.0 3.0 0.00 0.54 0.00 92 1018.2
20260509031837 53 20 1.0 2.0 0.00 0.54 0.00 91 1018.2
20260509031339 53 25 1.0 3.0 0.00 0.54 0.00 91 1018.2
20260509030336 53 24 1.0 3.0 0.00 0.54 0.00 91 1018.4
20260509025836 53 14 1.0 2.0 0.00 0.54 0.00 91 1018.4
20260509024836 54 346 0.0 0.0 0.00 0.54 0.00 90 1018.5